RH
8 13 16 28 26 33 31 23 17 15 20 35 45 58 70 71 52 52 69 54 31 34 36 34 30 26 24 31 50 55 59 54 50 47 45 49 54 52 52 53 55 53 52 56 58 56 53 48 48
8 10 21 28 32 33 24 18 24 20 34 55 55 58 66 73 63 78 71 54 36 34 36 36 33 30 28 30 42 55 60 59 54 52 50 50 56 56 56 59 60 59 56 56 59 59 56 53 50
10 16 24 28 36 30 22 12 22 21 31 27 58 63 64 72 72 72 58 49 40 37 38 37 37 36 34 34 44 55 59 62 59 55 55 54 58 58 59 62 64 66 62 61 62 62 61 57 53
13 20 23 22 24 19 14 13 9 22 18 44 63 79 69 66 62 62 44 41 37 40 39 39 38 39 39 38 42 52 58 62 63 60 60 59 63 62 62 64 68 75 68 66 69 70 64 62 57
12 23 24 25 22 15 13 11 10 20 20 32 52 79 85 65 62 67 68 45 39 45 42 40 40 41 42 42 43 47 52 60 63 65 64 65 70 68 67 69 71 74 72 74 76 84 69 60 59
13 21 25 25 20 14 12 12 10 10 18 48 63 78 81 63 68 77 74 65 56 54 47 45 46 45 46 47 46 48 51 57 62 64 68 73 74 72 71 72 73 76 77 78 80 81 77 67 61
13 17 18 17 16 13 12 13 13 13 12 19 53 84 82 71 70 77 74 70 72 69 58 54 51 51 50 50 50 50 52 54 59 63 70 73 71 69 70 70 74 80 80 77 78 74 77 74 71
14 16 16 15 15 12 12 11 12 13 12 27 52 88 92 70 78 80 79 78 78 78 73 63 58 54 55 55 55 55 54 53 57 59 62 68 71 70 73 76 77 77 78 79 80 80 80 78 81
10 16 20 14 11 12 11 12 10 10 20 60 64 65 61 65 78 82 89 91 86 85 78 74 65 66 66 64 63 60 60 63 66 67 71 74 76 78 86 82 84 84 85 86 85 85 84 79 77
16 19 15 12 11 14 11 11 11 11 12 64 69 67 63 72 77 85 91 98 94 92 87 79 78 80 78 75 70 70 71 72 76 77 80 86 87 88 97 93 86 82 83 85 86 91 94 87 80
16 17 13 12 12 13 14 12 9 12 12 33 65 76 68 70 72 78 85 89 90 85 84 83 81 81 80 78 78 76 74 76 80 83 82 87 88 84 90 91 86 81 86 81 85 89 88 88 90
27 18 16 15 14 14 15 12 12 11 12 11 58 68 70 71 73 75 80 90 89 92 91 86 82 83 82 75 76 78 86 90 90 89 85 85 83 80 79 75 80 86 87 88 95 90 94 92 85
27 25 27 25 21 19 15 16 15 14 11 11 40 67 69 68 70 71 74 84 86 89 87 82 84 85 88 84 83 88 91 88 85 85 86 82 79 77 81 80 80 90 89 89 91 86 86 87 82
29 33 30 27 26 22 19 18 14 14 12 11 19 72 69 67 68 70 70 81 80 84 84 82 84 84 91 92 91 90 94 88 82 79 76 79 78 75 73 79 84 90 88 86 86 84 84 83 78
32 36 33 27 24 23 19 22 19 14 14 13 12 40 68 65 64 66 65 76 76 80 82 85 86 88 77 85 81 88 93 88 82 75 73 83 81 79 77 75 80 78 78 78 75 71 72 73 70
38 38 40 22 21 20 19 28 18 15 15 14 13 13 62 63 61 60 59 69 72 78 78 86 89 84 63 63 65 68 71 73 72 69 65 84 83 80 77 76 78 69 68 66 64 61 58 57 54
46 52 43 35 24 24 21 26 20 17 14 14 13 13 37 60 59 56 56 63 69 72 79 81 76 70 63 61 63 63 64 64 62 58 60 74 79 80 72 72 69 68 68 65 60 59 57 56 54
56 52 44 44 34 29 31 31 26 22 19 18 18 17 16 53 58 53 53 60 64 69 72 68 65 62 62 62 63 62 63 64 62 59 60 68 73 69 67 68 68 66 64 61 60 59 56 55 53
44 46 50 42 32 32 35 35 30 25 24 25 26 26 21 32 48 48 54 57 63 67 66 61 62 63 62 64 64 62 63 63 65 64 61 60 69 66 65 64 62 60 59 55 56 58 55 53 41
49 52 51 40 31 35 37 37 27 25 24 36 42 43 43 31 25 47 56 59 64 68 67 70 64 66 66 63 61 57 59 62 61 64 62 59 61 63 61 57 58 59 57 54 50 55 58 53 51
45 48 44 40 37 36 38 44 29 26 34 37 40 40 42 45 48 46 58 61 64 69 74 79 74 72 68 62 61 60 60 61 66 66 61 58 59 62 59 56 58 59 57 52 54 57 54 57 60
52 35 36 37 44 58 35 65 35 30 44 44 43 48 48 46 53 61 62 66 69 73 76 78 76 73 67 62 59 56 60 66 65 60 60 61 59 63 63 59 63 65 64 60 60 63 59 53 62
39 30 32 34 42 47 42 51 40 30 42 47 47 43 45 47 64 69 73 74 76 73 77 75 69 67 66 63 56 57 62 61 58 60 61 62 63 64 70 67 67 67 65 63 63 63 60 59 58
28 31 36 41 49 68 49 47 55 41 49 47 43 43 40 47 62 65 68 74 75 71 69 68 65 62 64 61 58 57 59 61 58 61 64 62 64 69 72 76 72 72 69 66 65 63 60 58 58
30 43 64 64 68 73 45 51 48 46 42 41 45 48 46 40 57 60 62 66 66 67 64 62 62 63 63 60 58 57 56 58 56 56 61 62 64 72 77 79 78 76 74 72 68 64 62 60 59
40 44 67 72 83 71 53 60 57 41 39 35 32 40 44 50 47 59 63 59 53 52 56 59 62 62 63 62 58 57 57 57 56 54 56 59 56 64 78 81 80 76 75 72 72 68 66 62 57
48 51 43 62 75 90 69 53 47 47 48 42 38 34 41 46 48 49 50 52 53 54 53 52 53 57 62 62 61 58 57 58 58 57 57 59 60 68 78 82 80 77 76 73 69 68 67 65 61
44 42 62 88 99 97 74 60 67 54 47 40 36 34 33 41 47 47 45 39 44 45 52 56 54 55 56 57 60 59 59 61 61 59 59 59 62 70 77 81 81 77 72 70 70 67 64 62 63
41 56 56 75 84 86 80 68 58 48 39 37 28 25 23 41 46 47 48 44 43 43 43 48 55 54 55 56 56 60 62 64 66 58 58 60 65 71 76 78 78 74 66 66 66 66 64 61 61
38 48 56 88 82 86 84 70 40 36 32 27 22 22 18 37 43 43 50 50 54 52 52 51 52 56 56 55 55 57 62 65 64 61 63 67 71 76 76 78 76 70 62 61 64 62 61 62 65
Wind_Speed
14 12 11 3 4 5 3 7 3 8 2 5 6 8 8 4 2 3 3 17 36 34 28 24 23 22 21 21 21 21 19 17 15 14 14 13 13 13 12 11 10 10 9 9 9 10 10 11 12
12 12 3 3 4 3 5 5 4 1 7 12 12 6 5 2 4 8 10 23 37 34 29 25 22 21 20 20 20 20 19 17 17 15 13 13 11 11 10 9 9 8 7 7 7 7 8 8 10
12 2 3 4 4 4 3 3 7 3 12 4 5 7 5 6 6 12 14 32 33 31 28 25 22 20 19 19 19 19 18 17 16 15 14 12 11 10 9 9 8 6 6 6 6 5 5 6 7
4 5 4 3 6 6 4 10 9 5 1 7 7 7 4 6 11 14 30 32 31 28 26 24 22 19 19 18 18 18 17 16 15 15 14 13 11 10 9 9 8 6 5 5 4 3 3 2 3
3 3 2 2 4 4 6 7 6 5 2 4 3 6 3 2 16 33 31 33 31 28 25 24 22 20 19 18 17 17 17 15 15 15 14 13 11 10 9 9 8 7 6 5 4 3 2 2 1
4 3 3 3 4 6 8 8 5 4 2 4 6 5 4 9 24 29 31 30 26 27 25 23 20 20 19 18 17 17 17 16 15 15 14 13 12 10 10 9 8 8 7 7 6 5 4 3 3
4 4 3 3 5 4 5 12 8 6 5 6 9 5 1 5 19 31 31 29 26 26 24 23 22 21 20 19 18 18 17 17 16 15 14 13 12 11 10 10 9 8 8 8 7 7 6 6 6
4 4 2 3 2 4 8 10 5 7 5 3 4 6 5 7 27 32 30 27 24 22 24 25 24 23 21 20 19 18 17 16 15 14 14 13 12 10 10 9 9 9 8 8 9 9 9 8 8
3 3 3 4 1 5 5 8 8 5 4 4 7 5 9 25 32 31 27 24 22 19 21 24 23 22 21 19 19 18 17 16 15 14 13 13 13 11 10 9 7 7 7 7 7 9 10 10 11
4 3 7 5 1 4 4 5 5 6 9 4 4 6 32 30 30 25 22 20 24 23 22 22 22 22 21 20 19 18 17 16 15 15 14 12 10 11 10 9 9 10 11 11 10 10 10 9 9
1 5 4 7 4 2 5 4 3 5 5 4 5 7 17 22 24 24 24 29 28 26 24 23 23 22 21 20 20 18 17 17 16 14 12 11 10 9 9 9 11 11 10 9 9 10 8 6 5
5 5 4 6 6 6 7 5 6 6 9 3 9 18 12 14 15 23 24 25 33 30 26 23 22 22 19 19 20 20 19 17 16 14 13 12 11 11 11 12 12 10 10 10 9 7 7 5 3
4 5 10 9 9 9 8 6 6 9 11 9 9 15 17 16 16 19 20 22 28 31 29 26 23 21 19 18 20 20 19 18 16 15 14 14 12 12 12 12 11 10 10 9 8 8 7 8 6
6 9 10 6 10 7 10 6 1 10 9 10 4 15 18 18 21 18 22 27 32 31 33 29 26 22 22 18 20 21 21 19 19 15 13 14 13 10 9 10 10 10 9 9 9 7 7 6 5
6 8 8 6 7 6 7 6 8 17 10 11 13 10 16 20 21 25 32 31 37 36 36 33 30 25 19 21 21 22 23 22 19 14 13 12 13 12 12 11 10 10 9 8 7 6 6 7 5
6 3 4 2 5 7 6 8 15 14 9 12 12 9 14 19 23 32 30 35 37 35 39 38 34 29 21 19 20 19 18 16 13 11 11 13 12 13 12 12 14 12 10 8 9 8 7 7 7
3 5 4 6 2 5 6 8 8 12 5 9 9 10 10 16 18 27 28 34 36 40 41 39 34 32 27 23 18 15 14 13 11 10 11 12 14 14 14 14 14 13 12 11 9 9 8 7 6
5 4 4 5 8 11 8 6 8 7 7 7 9 8 7 14 20 32 33 32 37 42 44 42 38 35 32 28 22 16 13 11 9 8 8 10 11 11 13 14 13 13 13 12 10 9 9 8 8
3 5 8 8 13 5 9 6 10 10 8 10 10 8 9 10 19 32 25 34 35 40 46 46 42 37 35 32 31 24 20 15 12 10 8 9 12 11 11 12 13 13 13 11 11 11 10 8 7
11 11 12 9 7 2 7 7 4 5 5 6 8 13 14 11 6 6 24 31 39 43 43 41 41 37 33 31 28 26 23 18 16 13 10 9 11 10 11 12 12 12 12 10 12 16 13 7 11
13 12 6 6 4 2 5 6 1 1 6 9 10 8 13 8 10 6 14 27 32 36 33 28 32 32 30 25 21 17 19 16 17 15 13 12 12 11 12 12 13 13 12 12 12 16 16 9 9
11 7 6 3 5 3 3 6 5 6 6 10 11 10 9 12 11 5 7 15 20 21 24 28 29 27 23 23 22 25 27 21 16 18 15 12 13 14 13 14 13 14 12 13 12 14 17 17 17
4 2 1 1 2 2 3 2 5 3 5 5 5 6 7 8 12 12 10 18 21 26 26 27 25 23 22 23 22 24 25 23 17 18 15 13 12 13 12 14 15 16 14 13 13 14 15 18 16
4 4 6 5 2 4 9 7 5 4 9 5 4 7 10 9 13 14 19 24 22 20 20 23 23 23 22 22 22 25 26 24 20 18 17 16 15 15 14 13 13 13 14 15 14 13 14 15 14
4 6 2 3 1 6 4 2 5 6 7 7 7 5 6 10 9 7 14 18 21 21 23 24 25 24 23 24 21 23 26 27 23 22 22 20 18 17 16 15 14 13 13 13 13 14 14 14 14
6 7 5 6 4 3 5 4 3 4 6 6 7 6 6 8 8 7 5 14 21 22 22 20 23 20 22 22 21 21 24 23 23 23 24 24 22 20 18 16 14 14 13 12 12 12 12 12 13
4 4 8 4 3 3 4 2 2 3 5 7 7 8 6 7 7 8 9 10 11 12 16 17 16 13 18 21 21 20 22 22 23 24 26 26 22 20 20 18 15 14 14 13 12 12 11 11 12
10 7 4 3 3 5 4 4 5 5 4 6 8 7 7 5 6 6 7 8 9 8 9 13 13 13 12 15 21 22 22 22 22 25 29 29 24 23 23 21 18 16 13 12 13 13 13 12 13
2 5 3 6 5 4 3 5 4 7 7 6 3 6 3 7 7 7 7 10 12 10 7 6 11 14 18 16 15 20 22 21 21 27 30 30 29 28 26 24 21 18 17 16 15 14 15 13 14
2 4 6 4 5 4 4 4 4 6 11 7 8 8 3 6 8 8 7 11 14 14 12 8 9 14 16 16 17 17 19 21 20 23 28 29 33 32 30 27 23 21 20 19 19 19 17 15 15
Wind_Direction
318 330 323 54 47 62 263 267 281 290 303 314 94 126 133 33 120 203 138 162 162 156 155 155 151 148 148 154 160 158 157 156 151 151 147 146 143 140 140 138 132 127 117 107 103 101 94 90 86
318 336 44 86 84 46 280 255 283 32 144 139 102 106 59 82 76 113 117 169 160 156 156 157 157 151 148 151 157 159 158 159 157 159 157 155 154 149 148 147 142 135 130 124 113 106 103 99 95
324 357 89 108 121 187 210 285 308 266 179 165 100 43 98 115 127 148 158 160 158 157 160 160 157 153 149 150 154 158 157 161 162 163 163 162 166 162 160 159 154 149 147 141 129 117 109 109 109
321 20 23 106 226 256 237 261 246 252 343 52 107 76 63 343 150 157 153 160 160 161 162 161 160 158 154 153 154 156 158 162 165 166 168 170 176 175 172 171 168 167 168 163 156 155 132 120 123
51 59 41 299 264 270 264 261 199 240 203 129 145 146 79 47 130 146 154 165 165 161 165 164 166 164 161 160 159 160 161 165 167 169 173 177 183 183 180 179 179 179 183 187 182 203 199 175 191
27 93 30 271 280 303 298 322 309 18 329 157 81 98 161 161 132 153 161 163 165 164 166 167 169 167 166 166 164 165 165 167 170 173 177 182 187 190 187 186 190 191 193 204 205 221 242 241 236
114 85 218 272 280 326 342 333 24 332 329 356 120 84 303 180 142 160 162 158 160 164 171 170 174 172 172 174 174 172 171 171 176 178 181 186 189 192 195 196 201 207 211 216 224 227 245 258 259
111 100 255 241 260 273 358 348 326 23 323 66 155 152 179 201 148 155 154 154 159 169 176 179 179 177 178 180 181 178 177 179 180 183 185 189 190 197 204 209 212 216 223 231 239 242 245 253 261
83 48 233 248 228 290 345 7 323 305 30 20 339 160 159 161 148 146 149 151 157 169 182 184 180 177 180 182 182 186 187 185 186 189 194 197 196 192 207 219 224 232 240 246 258 262 256 254 261
109 159 223 216 308 304 302 11 298 357 335 22 358 15 147 152 157 151 160 161 164 170 179 183 182 179 181 184 186 185 183 184 187 187 190 190 191 200 211 210 213 234 232 236 241 252 267 265 257
274 223 248 284 283 258 290 287 294 319 304 167 195 171 165 165 171 167 173 173 171 178 177 181 182 183 184 186 183 183 183 179 181 182 182 190 195 199 212 216 227 232 229 233 249 240 244 235 243
323 273 263 291 323 327 297 308 308 254 258 244 166 174 174 188 186 183 180 173 171 177 182 183 188 185 189 195 189 181 180 177 182 186 190 194 200 210 223 232 234 231 229 218 207 197 197 197 132
203 321 326 316 313 308 291 276 259 260 270 277 172 171 185 195 201 196 185 175 176 179 184 187 192 192 192 184 183 185 183 183 188 194 196 200 201 221 223 223 226 224 219 211 195 185 180 181 174
316 323 304 305 308 286 276 271 162 279 269 280 228 183 191 194 201 191 183 179 186 188 190 188 192 196 193 203 191 194 193 191 191 197 207 206 197 206 213 209 210 209 202 202 199 199 202 196 171
305 310 304 288 258 262 281 333 249 262 254 252 255 187 192 204 193 197 195 183 189 191 188 187 184 189 189 189 187 187 191 191 192 201 215 205 204 199 193 188 187 188 188 188 191 186 191 201 184
333 308 338 284 320 273 137 281 273 273 248 258 254 244 192 202 198 206 198 187 191 183 187 183 183 183 175 169 167 174 182 191 204 212 213 203 191 191 192 194 186 185 200 205 195 190 171 160 148
284 256 253 297 241 277 182 284 292 322 297 273 266 257 205 207 203 208 203 187 182 183 179 178 179 180 176 178 180 189 197 210 218 224 220 210 214 208 195 190 192 196 210 218 202 194 189 172 151
212 233 230 278 296 317 280 276 301 316 345 296 299 280 255 205 205 206 200 180 177 177 177 176 181 184 185 183 181 186 191 202 213 217 216 209 212 208 201 206 214 221 220 213 200 194 177 172 178
253 269 269 273 276 275 302 307 301 304 317 329 337 313 284 217 217 209 186 169 164 168 172 178 180 180 181 178 172 176 182 194 199 206 215 211 209 209 209 221 219 210 212 204 190 168 161 148 166
244 253 265 273 248 348 324 306 290 331 6 56 23 33 15 348 244 198 159 165 170 169 172 174 177 178 184 186 182 179 182 186 197 197 208 218 213 214 216 214 204 198 213 200 193 180 167 150 167
244 240 248 248 276 3 348 314 42 335 67 59 45 44 30 359 338 167 160 172 170 171 170 162 170 176 182 183 173 175 177 177 179 189 212 213 210 206 199 207 206 206 211 198 192 185 180 157 146
242 231 239 342 11 267 88 290 220 257 103 53 53 30 13 3 356 56 120 136 151 149 155 163 171 176 180 181 183 188 188 175 192 204 217 210 209 208 205 212 212 204 197 191 189 185 189 175 156
235 152 116 33 318 323 200 245 270 216 115 98 57 61 30 18 39 62 66 88 125 139 152 165 171 178 184 195 200 201 199 198 205 206 206 210 208 211 216 212 211 202 198 195 194 188 181 179 175
163 82 38 33 43 291 220 191 296 330 127 96 47 38 58 41 81 85 87 100 115 138 156 170 178 192 198 197 201 208 207 196 193 202 208 211 210 208 209 211 209 208 201 192 190 187 179 179 185
111 82 359 342 296 231 341 161 253 106 117 119 115 78 56 68 44 78 108 117 133 155 169 179 191 197 199 201 208 215 215 205 205 213 213 207 207 207 203 203 204 210 214 206 194 187 182 176 172
175 153 157 211 217 281 311 239 152 124 124 128 94 103 86 71 81 76 72 127 146 166 176 186 201 204 203 209 217 217 212 210 217 222 223 216 214 212 201 201 201 209 206 197 193 187 179 173 163
187 180 176 114 16 41 233 113 334 167 71 79 66 85 66 55 62 89 116 128 184 191 205 209 211 204 208 215 219 216 214 221 225 227 225 218 215 205 201 200 202 201 203 200 193 179 161 163 150
194 164 116 27 187 239 259 232 192 133 99 47 49 31 88 131 119 107 112 126 113 107 197 215 225 224 213 215 220 223 228 234 240 227 219 214 209 204 203 200 199 198 192 190 186 169 157 155 144
155 150 108 136 167 191 205 248 211 146 112 111 302 318 78 172 172 173 169 129 128 122 124 187 209 223 226 223 224 227 233 237 239 227 219 214 204 199 199 197 194 192 183 183 179 167 160 155 144
121 157 145 153 210 193 183 259 174 117 76 10 348 327 315 193 210 198 158 145 136 139 142 164 199 222 226 231 234 230 229 232 228 224 218 211 200 197 197 193 190 185 184 182 182 170 166 159 154